World > North America > United States > Michigan > Harbor Beach   City of Harbor Beach, MI

Harbor Beach, MI Hourly Weather Updates

Feedback E-mail the Weather

Quick Clicks

Harbor Beach, MI Weather Maps

°F °C°F °C
Harbor Beach Weather Map
UTC Time: 4/20/2024, 14:33
Your Time:

Harbor Beach, MI Regional Weather

Expires:202404201500;;074283
ASUS43 KDTX 201410
RWRMI 
MICHIGAN HOURLY REGIONAL WEATHER ROUNDUP
NATIONAL WEATHER SERVICE DETROIT/PONTIAC MI
ISSUED BY NATIONAL WEATHER SERVICE GRAND RAPIDS MI
1000 AM EDT SAT APR 20 2024

NOTE: "FAIR" INDICATES FEW OR NO CLOUDS BELOW 12,000 FEET WITH NO
SIGNIFICANT WEATHER AND/OR OBSTRUCTION TO VISIBILITY.


MIZ047>049-052>055-059>063-066>070-074>076-081>083-201500-
SOUTHEAST LOWER MICHIGAN
  
CITY           SKY/WX    TMP DP  RH WIND       PRES   REMARKS
ADRIAN         PTSUNNY   42  23  46 W13G20    30.14R TC   6           
ALMA           CLOUDY    39  23  51 W16       30.10R WCI  30 TC   4   
ANN ARBOR      PTSUNNY   40  21  46 NW14G29   30.11R WCI  32 TC   4   
BAD AXE        CLOUDY    39  25  56 NW14G20   30.03R WCI  31 TC   4   
DETROIT CITY   CLOUDY    42  19  39 NW14G29   30.09R TC   6           
DETROIT        PTSUNNY   43  23  45 NW15G25   30.11R TC   6           
FLINT          CLOUDY    39  26  59 W13       30.10R WCI  31 TC   4   
GROSSE ILE     PTSUNNY   43  10  26 W16       30.10R TC   6           
HILLSDALE      PTSUNNY   39  10  30 W14G23    30.12R WCI  31 TC   4   
HOWELL         LGT SNOW  35  29  78 NW7G20    30.10R WCI  29 TC   2   

CITY           SKY/WX    TMP DP  RH WIND       PRES   REMARKS
JACKSON        PTSUNNY   39  20  46 W13G26    30.12R WCI  31 TC   4   
LANSING        CLOUDY    36  26  67 NW10      30.12R WCI  28 TC   2   
MASON          PTSUNNY   40  21  46 W16G22    30.11S WCI  31 TC   4   
MIDLAND        CLOUDY    39  26  60 W7        30.08R WCI  34 TC   4   
MONROE         CLOUDY    42  21  44 W16G23    30.12R TC   6           
MT. CLEMENS    CLOUDY    41  18  40 W15G25    30.06R TC   5           
PONTIAC        CLOUDY    39  21  48 W16G28    30.08R WCI  30 TC   4   
PORT HOPE        N/A     41  26  55 W10G21    30.01R TC   5           
PORT HURON     CLOUDY    39  18  41 W12G21    30.07R WCI  32 TC   4   
TRI CITIES     CLOUDY    39  25  57 W16G22    30.08R WCI  30 TC   4   
YPSILANTI      PTSUNNY   40  23  50 W18G29    30.11R WCI  31 TC   4   
$$

SKY/WX - Weather  TMP - Temperature  DP - Dew Point  RH - Humidity
WIND - Wind Direction/Speed PRES - Barometric Pressure VSB - Visibility
WCI - Wind Chill Index E13G22 Wind - East Wind 13 mph/Gusts of 22 mph

Trending Headlines

Trending Entertainment Headlines

Harbor Beach Radar Loop

Use the map search tool if you want to place a location marker on the radar map...

Harbor Beach Quick Facts

National Two Day Weather Forecast


E-mail the Harbor Beach Weather Forecast

Voice your opinion or tell us about page issues...